Location: Franzen
(48.6167°N, 15.3833°E)
Time: 09:24:01
(UTC+00:00)

Altair - Pass Details

Date: 01 August 2021
Orbit: 1501 x 1682 km, 47.2° (Epoch: 20 September)

Event Time Altitude Azimuth Distance (km) Brightness Sun altitude
Rises 01:56:33 0° 246° (WSW) 4,727 - -13.2°
Reaches altitude 10° 01:59:39 10° 245° (WSW) 3,722 - -12.9°
Exits shadow 02:00:21 13° 244° (WSW) 3,501 8.8 -12.8°
Maximum altitude 02:08:57 73° 163° (SSE) 1,574 7.5 -11.8°
Drops below altitude 10° 02:18:04 10° 81° (E) 3,655 10.4 -10.8°
Sets 02:21:05 0° 80° (E) 4,638 11.1 -10.4°
